When you browse on this site, cookies collect data to enhance your experience and personalize the content and advertising you see.
Visit our Privacy Policy to learn more. By continuing to use the site, you agree to this use of cookies and data.
  • En España
  • Lista de países
  • Para 7 días
  • Temperatura del agua
  • Mapa Satelital
  • El tiempo en el mapa
  • Informadores
  • user-avatar
    Iniciar sesión

    Tiempo cada hora Akka

    Hoy, 21 Julio, Domingo

    Tiempo Temperatura Precipitaciones Viento Presión Humedad
    00:00 +25°C° 0 mm 2 mps 757 mmHg 87%
    01:00 +25°C° 0 mm 2 mps 757 mmHg 87%
    02:00 +25°C° 0 mm 2 mps 756 mmHg 88%
    03:00 +25°C° 0 mm 2 mps 756 mmHg 88%
    04:00 +24°C° 0 mm 2 mps 756 mmHg 88%
    05:00 +24°C° 0 mm 1 mps 756 mmHg 88%
    06:00 +26°C° 0 mm 2 mps 756 mmHg 79%
    07:00 +28°C° 0 mm 3 mps 756 mmHg 71%
    08:00 +30°C° 0 mm 3 mps 756 mmHg 62%
    09:00 +32°C° 0 mm 4 mps 756 mmHg 59%
    10:00 +33°C° 0 mm 4 mps 756 mmHg 56%
    11:00 +34°C° 0 mm 5 mps 756 mmHg 52%
    12:00 +34°C° 0 mm 5 mps 756 mmHg 54%
    13:00 +34°C° 0 mm 5 mps 756 mmHg 55%
    14:00 +33°C° 0 mm 6 mps 755 mmHg 56%
    15:00 +33°C° 0 mm 5 mps 755 mmHg 61%
    16:00 +32°C° 0 mm 5 mps 755 mmHg 66%
    17:00 +30°C° 0 mm 5 mps 755 mmHg 71%
    18:00 +29°C° 0 mm 4 mps 755 mmHg 77%
    19:00 +27°C° 0 mm 3 mps 755 mmHg 84%
    20:00 +26°C° 0 mm 2 mps 755 mmHg 90%
    21:00 +26°C° 0 mm 2 mps 755 mmHg 90%
    22:00 +26°C° 0 mm 2 mps 755 mmHg 89%
    23:00 +26°C° 0 mm 1 mps 755 mmHg 89%

    Mañana, 22 Julio, Lunes

    Tiempo Temperatura Precipitaciones Viento Presión Humedad
    00:00 +25°C° 0 mm 1 mps 755 mmHg 89%
    01:00 +25°C° 0 mm 1 mps 755 mmHg 88%
    02:00 +25°C° 0 mm 1 mps 755 mmHg 88%
    03:00 +25°C° 0 mm 1 mps 754 mmHg 88%
    04:00 +25°C° 0 mm 1 mps 754 mmHg 87%
    05:00 +24°C° 0 mm 1 mps 754 mmHg 87%
    06:00 +26°C° 0 mm 2 mps 755 mmHg 78%
    07:00 +29°C° 0 mm 3 mps 755 mmHg 70%
    08:00 +31°C° 0 mm 3 mps 755 mmHg 61%
    09:00 +33°C° 0 mm 4 mps 755 mmHg 58%
    10:00 +34°C° 0 mm 4 mps 755 mmHg 54%
    11:00 +35°C° 0 mm 4 mps 755 mmHg 51%
    12:00 +35°C° 0 mm 4 mps 755 mmHg 51%
    13:00 +35°C° 0 mm 5 mps 754 mmHg 51%
    14:00 +35°C° 0 mm 5 mps 754 mmHg 52%
    15:00 +34°C° 0 mm 5 mps 754 mmHg 54%
    16:00 +33°C° 0 mm 5 mps 753 mmHg 57%
    17:00 +33°C° 0 mm 5 mps 753 mmHg 60%
    18:00 +30°C° 0 mm 4 mps 753 mmHg 66%
    19:00 +29°C° 0 mm 4 mps 753 mmHg 73%
    20:00 +27°C° 0 mm 4 mps 754 mmHg 80%
    21:00 +27°C° 0 mm 3 mps 753 mmHg 79%
    22:00 +27°C° 0 mm 2 mps 753 mmHg 77%
    23:00 +26°C° 0 mm 2 mps 753 mmHg 76%

    Pasado mañana, 23 Julio, Martes

    Tiempo Temperatura Precipitaciones Viento Presión Humedad
    00:00 +26°C° 0 mm 2 mps 753 mmHg 76%
    01:00 +26°C° 0 mm 2 mps 753 mmHg 77%
    02:00 +26°C° 0 mm 2 mps 753 mmHg 77%
    03:00 +26°C° 0 mm 2 mps 753 mmHg 78%
    04:00 +25°C° 0 mm 2 mps 753 mmHg 80%
    05:00 +25°C° 0 mm 1 mps 753 mmHg 81%
    06:00 +28°C° 0 mm 1 mps 753 mmHg 70%
    07:00 +30°C° 0 mm 1 mps 753 mmHg 58%
    08:00 +33°C° 0 mm 1 mps 753 mmHg 46%
    09:00 +35°C° 0 mm 2 mps 753 mmHg 44%
    10:00 +36°C° 0 mm 3 mps 753 mmHg 42%
    11:00 +37°C° 0 mm 4 mps 753 mmHg 39%
    12:00 +37°C° 0 mm 5 mps 753 mmHg 41%
    13:00 +36°C° 0 mm 5 mps 752 mmHg 43%
    14:00 +36°C° 0 mm 6 mps 752 mmHg 44%
    15:00 +35°C° 0 mm 6 mps 752 mmHg 47%
    16:00 +34°C° 0 mm 5 mps 752 mmHg 50%
    17:00 +33°C° 0 mm 5 mps 752 mmHg 53%
    18:00 +32°C° 0 mm 5 mps 752 mmHg 60%
    19:00 +29°C° 0 mm 5 mps 752 mmHg 66%
    20:00 +28°C° 0 mm 4 mps 753 mmHg 73%
    21:00 +27°C° 0 mm 3 mps 753 mmHg 76%
    22:00 +27°C° 0 mm 3 mps 753 mmHg 79%
    23:00 +26°C° 0 mm 2 mps 753 mmHg 82%

    24 Julio, Miércoles

    Tiempo Temperatura Precipitaciones Viento Presión Humedad
    00:00 +26°C° 0 mm 1 mps 753 mmHg 83%
    01:00 +25°C° 0 mm 1 mps 753 mmHg 85%
    02:00 +25°C° 0 mm 1 mps 753 mmHg 86%
    03:00 +25°C° 0 mm 1 mps 753 mmHg 87%
    04:00 +24°C° 0 mm 1 mps 753 mmHg 89%
    05:00 +24°C° 0 mm 2 mps 753 mmHg 90%
    06:00 +26°C° 0 mm 2 mps 753 mmHg 80%
    07:00 +28°C° 0 mm 2 mps 753 mmHg 69%
    08:00 +31°C° 0 mm 3 mps 753 mmHg 59%
    09:00 +33°C° 0 mm 3 mps 754 mmHg 54%
    10:00 +34°C° 0 mm 4 mps 754 mmHg 49%
    11:00 +36°C° 0 mm 5 mps 754 mmHg 45%
    12:00 +35°C° 0 mm 5 mps 754 mmHg 46%
    13:00 +35°C° 0 mm 5 mps 753 mmHg 46%
    14:00 +35°C° 0 mm 5 mps 753 mmHg 47%
    15:00 +34°C° 0 mm 4 mps 753 mmHg 51%
    16:00 +33°C° 0 mm 4 mps 753 mmHg 55%
    17:00 +32°C° 0 mm 4 mps 753 mmHg 59%
    18:00 +30°C° 0 mm 3 mps 753 mmHg 68%
    19:00 +28°C° 0 mm 2 mps 753 mmHg 76%
    20:00 +26°C° 0 mm 1 mps 754 mmHg 85%
    21:00 +26°C° 0 mm 1 mps 754 mmHg 82%
    22:00 +26°C° 0 mm 1 mps 754 mmHg 78%
    23:00 +25°C° 0 mm 1 mps 754 mmHg 75%

    25 Julio, Jueves

    Tiempo Temperatura Precipitaciones Viento Presión Humedad
    00:00 +25°C° 0 mm 1 mps 753 mmHg 73%
    01:00 +25°C° 0 mm 1 mps 753 mmHg 72%
    02:00 +25°C° 0 mm 1 mps 753 mmHg 71%
    03:00 +24°C° 0 mm 1 mps 753 mmHg 73%
    04:00 +24°C° 0 mm 1 mps 753 mmHg 74%
    05:00 +24°C° 0 mm 1 mps 754 mmHg 76%
    06:00 +26°C° 0 mm 1 mps 754 mmHg 69%
    07:00 +28°C° 0 mm 2 mps 754 mmHg 63%
    08:00 +31°C° 0 mm 2 mps 755 mmHg 56%
    09:00 +33°C° 0 mm 3 mps 755 mmHg 51%
    10:00 +34°C° 0 mm 3 mps 755 mmHg 45%
    11:00 +36°C° 0 mm 4 mps 755 mmHg 40%
    12:00 +35°C° 0 mm 4 mps 754 mmHg 41%
    13:00 +35°C° 0 mm 4 mps 754 mmHg 41%
    14:00 +35°C° 0 mm 5 mps 754 mmHg 42%
    15:00 +34°C° 0 mm 5 mps 754 mmHg 46%
    16:00 +33°C° 0 mm 5 mps 753 mmHg 49%
    17:00 +32°C° 0 mm 5 mps 753 mmHg 53%
    18:00 +30°C° 0 mm 4 mps 753 mmHg 62%
    19:00 +28°C° 0 mm 3 mps 754 mmHg 72%
    20:00 +26°C° 0 mm 3 mps 754 mmHg 81%
    21:00 +25°C° 0 mm 2 mps 754 mmHg 79%
    22:00 +25°C° 0 mm 2 mps 754 mmHg 76%
    23:00 +25°C° 0 mm 2 mps 753 mmHg 74%

    26 Julio, Viernes

    Tiempo Temperatura Precipitaciones Viento Presión Humedad
    00:00 +25°C° 0 mm 2 mps 753 mmHg 75%
    01:00 +25°C° 0 mm 2 mps 753 mmHg 75%
    02:00 +24°C° 0 mm 2 mps 753 mmHg 76%
    03:00 +24°C° 0 mm 1 mps 754 mmHg 76%
    04:00 +24°C° 0 mm 1 mps 754 mmHg 76%
    05:00 +24°C° 0 mm 1 mps 754 mmHg 75%
    06:00 +26°C° 0 mm 1 mps 754 mmHg 68%
    07:00 +29°C° 0 mm 2 mps 754 mmHg 60%
    08:00 +31°C° 0 mm 2 mps 754 mmHg 52%
    09:00 +33°C° 0 mm 3 mps 754 mmHg 51%
    10:00 +34°C° 0 mm 4 mps 754 mmHg 49%
    11:00 +35°C° 0 mm 4 mps 754 mmHg 48%
    12:00 +35°C° 0 mm 4 mps 753 mmHg 50%
    13:00 +35°C° 0 mm 5 mps 753 mmHg 51%
    14:00 +35°C° 0 mm 5 mps 753 mmHg 53%
    15:00 +34°C° 0 mm 5 mps 752 mmHg 56%
    16:00 +33°C° 0 mm 5 mps 752 mmHg 60%
    17:00 +32°C° 0 mm 5 mps 752 mmHg 63%
    18:00 +30°C° 0 mm 5 mps 752 mmHg 71%
    19:00 +28°C° 0 mm 4 mps 752 mmHg 79%
    20:00 +27°C° 0 mm 4 mps 752 mmHg 86%
    21:00 +27°C° 0 mm 4 mps 752 mmHg 87%
    22:00 +26°C° 0 mm 4 mps 752 mmHg 88%
    23:00 +26°C° 0 mm 3 mps 752 mmHg 88%
    Mostrar más